Tracking 19242 objects as of 20-Sep-2018
HD Live streaming from Space Station
objects crossing your sky now

FENGYUN 1C DEB

Track FENGYUN 1C DEB now!
10-day predictions


NORAD ID: 37477
Int'l Code: 1999-025EJX
Perigee: 832.6 km
Apogee: 881.3 km
Inclination: 98.8 °
Period: 101.9 minutes
Semi major axis: 7227 km
RCS: 0.0017 m2 (small)
Launch date: May 10, 1999
Source: People's Republic of China (PRC)
Launch site: Taiyaun Space Center, China (TSC)

Note: This is SATELLITE DEBRIS
aabbcc
Your satellite tracking list
Your tracking list is empty




NASA's NSSDC Master Catalog

Two Line Element Set (TLE):
1 37477U 99025EJX 18262.30359755 +.00000462 +00000-0 +27040-3 0  9997
2 37477 098.8052 302.1385 0033658 105.8936 254.5950 14.12790539446095
Source of the keplerian elements: AFSPC